SITRO-AIS 9 (SHCHUKIN)

Last updated on Sun Jun 21 2026 00:03:50 GMT+0000 (Coordinated Universal Time)

1 57201U 23091AM 26171.46334057 .00016878 00000+0 44967-3 0 9991 2 57201 97.5073 241.8115 0007548 70.6764 289.5297 15.38222800165256
UTC large
Height (km)
Speed (km/s)
/
Latitude / Longitude
Inclination (degrees)
Orbital Period (minutes)
Azimuth
Elevation
Range (km)
Doppler Factor

Next 0 passes for location: London (51.5072 / 0.1276)

No passes found over London.
SITRO-AIS 9 (SHCHUKIN)